Regional Weather Roundup
Issued by NWS Kansas City/Pleasant Hill, MO

Home | Current Version | Previous Version | Text Only | Print | Product List | Glossary On
Versions: 1 2 3 4 5 6 7 8 9 10 11 12 13 14 15 16 17 18 19 20 21 22 23 24 25 26 27 28 29 30 31 32 33 34 35 36 37 38 39 40 41 42 43 44 45 46 47 48 49 50
193
ASUS43 KEAX 260410
RWREAX

WEATHER ROUNDUP FOR EASTERN KANSAS AND NORTHWEST MISSOURI
NATIONAL WEATHER SERVICE KANSAS CITY/PLEASANT HILL MO
1100 PM CDT MON JUL 25 2016

KSZ040-057-103>105-MOZ028-029-037-043-260500-
...KANSAS CITY METROPOLITAN AREA...

CITY           SKY/WX    TMP DP  RH WIND       PRES   REMARKS
K.C. INTL      CLOUDY    79  66  64 E5        30.07S
K.C. DOWNTOWN  CLOUDY    79  67  66 E5        30.05S
LEES SUMMIT    CLOUDY    78  70  76 E3        30.07S
OLATHE - IXD   PTCLDY    77  68  73 E5        30.07S
OLATHE - OJC   PTCLDY    76  67  73 CALM      30.07S
LAWRENCE       CLOUDY    75  68  78 NE6       30.05F

$$

MOZ001>008-011>017-020>025-030>033-038>040-044>046-053-054-260500-
...NORTHERN AND CENTRAL MISSOURI...

CITY           SKY/WX    TMP DP  RH WIND       PRES   REMARKS
ST. JOSEPH     CLEAR     72  68  87 CALM      30.07S
MOSBY          CLOUDY    73  72  94 CALM      30.07S
WHITEMAN AFB   CLOUDY    74  74 100 CALM      30.05R
CLINTON        PTCLDY    73  73 100 CALM      30.06S
SEDALIA        PTCLDY    73  70  90 CALM      30.07S
WARSAW         NOT AVBL
CHILLICOTHE      N/A     74  70  87 CALM      30.08R
KIRKSVILLE     PTCLDY    68  66  93 CALM      30.08R

$$

MOZ041-047>049-056>058-063>065-088>090-097-260500-
...EASTERN AND SOUTHERN MISSOURI...

CITY           SKY/WX    TMP DP  RH WIND       PRES   REMARKS
ST. LOUIS INTL NOT AVBL
SPIRIT OF STL  PTCLDY    76  75  97 S3        30.01R
COLUMBIA       CLEAR     73  71  93 N3        30.06R
JEFFERSON CITY CLEAR     74  70  87 CALM      30.04R
ROLLA          MOCLDY    74  71  91 NE5       30.05R
OSAGE BEACH    PTCLDY    74  72  93 CALM      30.06R
SPRINGFIELD    CLEAR     76  71  85 E5        30.06R
BRANSON        MOCLDY    75  72  88 CALM      30.06S
JOPLIN         PTCLDY    75  74  96 NE5       30.03F
WEST PLAINS    CLOUDY    78  72  81 CALM      30.07R

$$

IAZ060-094-KSZ022-034>040-054-083-096-NEZ052-066-093-260500-
...KANSAS...SOUTHEAST NEBRASKA AND IOWA...

CITY           SKY/WX    TMP DP  RH WIND       PRES   REMARKS
TOPEKA         MOCLDY    76  67  73 NE5       30.06S
MANHATTAN      PTCLDY    73  67  81 E5        30.06S
EMPORIA        CLOUDY    74  71  91 N5        30.06S
CHANUTE        MOCLDY    77  73  87 NE6       30.04S
WICHITA        PTCLDY    78  71  79 E10       30.04S
OMAHA          CLEAR     77  67  71 SE5       30.09R
LINCOLN        CLEAR     77  65  66 SE3       30.10R
FALLS CITY     CLEAR     73  68  84 E3        30.07S
LAMONI         CLEAR     70  65  84 CALM      30.09R
DES MOINES     CLEAR     77  64  64 CALM      30.08R

$$





USA.gov is the U.S. government's official web portal to all federal, state and local government web resources and services.